EW2692 Weather Reports


time (UTC)temp
C
wind
direction
speed
KPH
gust
KPH
rain 1hr
cm
rain 24hr
cm
rain mn
cm
humidity
%
barometer
mb
20260509214604 17 300 14.5 25.7 0.00 0.00 0.00 30 942.9
20260509213055 17 301 12.9 24.1 0.00 0.00 0.00 30 943.0
20260509211558 17 296 14.5 24.1 0.00 0.00 0.00 30 943.0
20260509210112 16 283 14.5 25.7 0.00 0.00 0.00 31 943.1
20260509204557 16 306 14.5 25.7 0.00 0.00 0.00 31 943.2
20260509203050 17 302 14.5 27.4 0.00 0.00 0.00 32 943.1
20260509201556 16 299 12.9 24.1 0.00 0.00 0.00 32 943.2
20260509200057 16 307 8.0 24.1 0.00 0.00 0.00 33 943.2
20260509194545 16 309 11.3 25.7 0.00 0.00 0.00 33 943.3
20260509193044 16 292 12.9 27.4 0.00 0.00 0.00 34 943.4
20260509191541 15 301 14.5 25.7 0.00 0.00 0.00 35 943.4
20260509190043 15 301 8.0 22.5 0.00 0.00 0.00 36 943.5
20260509184536 14 281 12.9 25.7 0.00 0.00 0.00 37 943.4
20260509183035 14 313 8.0 25.7 0.00 0.00 0.00 39 943.5
20260509181538 14 290 12.9 24.1 0.00 0.00 0.00 40 943.6
20260509180030 13 294 4.8 19.3 0.00 0.00 0.00 42 943.5
20260509174528 13 282 4.8 14.5 0.00 0.00 0.00 42 943.7
20260509173025 12 278 11.3 19.3 0.00 0.00 0.00 43 943.7
20260509171534 12 294 4.8 14.5 0.00 0.00 0.00 44 943.6
20260509170028 12 306 4.8 16.1 0.00 0.00 0.00 46 943.5
20260509164518 11 275 4.8 16.1 0.00 0.00 0.00 50 943.7
20260509163015 10 318 4.8 17.7 0.00 0.00 0.00 51 943.7
20260509161513 10 276 8.0 14.5 0.00 0.00 0.00 52 943.8
20260509160011 10 278 4.8 14.5 0.00 0.00 0.00 53 943.7
20260509154512 9 277 4.8 14.5 0.00 0.00 0.00 56 943.8
20260509153005 8 289 4.8 14.5 0.00 0.00 0.00 58 943.8
20260509151504 8 293 4.8 11.3 0.00 0.00 0.00 59 943.8
20260509150007 7 292 1.6 6.4 0.00 0.00 0.00 62 943.8
20260509144600 7 292 3.2 6.4 0.00 0.00 0.00 66 943.7
20260509143059 6 300 0.0 6.4 0.00 0.00 0.00 71 943.7
20260509141557 5 305 0.0 3.2 0.00 0.00 0.00 71 943.6
20260509134625 4 314 0.0 4.8 0.00 0.00 0.00 79 943.4
20260509133056 3 312 1.6 4.8 0.00 0.00 0.00 82 943.2
20260509131553 2 347 0.0 3.2 0.00 0.00 0.00 84 943.1
20260509130048 1 350 0.0 3.2 0.00 0.00 0.00 86 942.9
20260509124546 1 351 0.0 1.6 0.00 0.00 0.00 86 942.7
20260509123044 0 355 0.0 1.6 0.00 0.00 0.00 86 942.5
20260509121546 1 355 0.0 1.6 0.00 0.00 0.00 85 942.3
20260509120043 1 360 0.0 1.6 0.00 0.00 0.00 87 942.0
20260509114543 0 5 0.0 1.6 0.00 0.00 0.00 88 941.7
20260509113034 0 5 0.0 1.6 0.00 0.00 0.00 88 941.4
20260509111533 0 5 0.0 0.0 0.00 0.00 0.00 88 941.2
20260509110030 0 5 0.0 1.6 0.00 0.00 0.00 88 941.0
20260509104528 1 5 0.0 1.6 0.00 0.00 0.00 89 940.8
20260509103025 1 22 0.0 0.0 0.00 0.00 0.00 89 940.7
20260509101534 1 22 0.0 0.0 0.00 0.00 0.00 89 940.6
20260509100025 1 22 0.0 1.6 0.00 0.00 0.00 88 940.5
20260509094522 1 22 0.0 0.0 0.00 0.00 0.00 88 940.3
20260509093020 1 22 0.0 0.0 0.00 0.00 0.00 86 940.1
20260509091519 1 22 0.0 0.0 0.00 0.00 0.00 85 939.8
20260509090010 2 22 0.0 1.6 0.00 0.00 0.00 84 939.5
20260509084511 3 22 0.0 1.6 0.00 0.00 0.00 83 939.3
20260509083001 3 22 0.0 3.2 0.00 0.00 0.00 82 939.0
20260509081558 4 22 0.0 4.8 0.00 0.00 0.00 82 938.9
20260509080056 4 12 0.0 4.8 0.00 0.00 0.00 82 938.7
20260509074604 5 28 1.6 4.8 0.00 0.00 0.00 84 938.7
20260509073055 4 56 0.0 1.6 0.00 0.00 0.00 87 938.5
20260509071550 5 58 0.0 1.6 0.00 0.00 0.00 87 938.4
20260509070048 5 58 0.0 0.0 0.00 0.00 0.00 85 938.2
20260509064556 6 58 0.0 0.0 0.00 0.00 0.00 82 938.0
20260509063042 7 58 0.0 1.6 0.00 0.00 0.00 80 937.7
20260509061535 7 58 0.0 1.6 0.00 0.00 0.00 79 937.5
20260509060029 8 60 0.0 0.0 0.00 0.00 0.00 78 937.4
20260509054528 8 60 0.0 0.0 0.00 0.00 0.00 79 937.3
20260509053028 9 60 0.0 1.6 0.00 0.00 0.00 79 937.1
20260509051534 9 60 0.0 0.0 0.00 0.00 0.00 79 936.9
20260509050026 10 60 0.0 1.6 0.00 0.00 0.00 78 936.9
20260509044526 10 60 0.0 1.6 0.00 0.00 0.00 77 936.7
20260509043025 10 76 0.0 1.6 0.00 0.00 0.00 77 936.3
20260509041525 10 76 0.0 1.6 0.00 0.00 0.00 77 935.8
20260509040024 10 76 0.0 1.6 0.00 0.00 0.00 76 935.5
20260509034538 10 76 0.0 3.2 0.00 0.00 0.00 75 935.4
20260509033023 10 78 0.0 4.8 0.00 0.00 0.00 74 935.4
20260509031523 10 60 1.6 4.8 0.00 0.00 0.00 72 935.2
20260509030023 11 63 0.0 4.8 0.00 0.00 0.00 71 935.1
20260509024520 12 79 0.0 8.0 0.00 0.00 0.00 63 934.7
20260509023020 13 29 3.2 22.5 0.00 0.00 0.00 54 934.9
20260509021522 14 36 1.6 17.7 0.00 0.00 0.00 51 934.8
20260509020019 15 59 9.7 20.9 0.00 0.00 0.00 45 934.5
20260509014517 16 320 6.4 16.1 0.00 0.00 0.00 42 934.5
20260509013017 16 319 8.0 22.5 0.00 0.00 0.00 41 934.3
20260509011517 17 311 8.0 20.9 0.00 0.00 0.00 39 934.2
20260509010020 17 302 9.7 25.7 0.00 0.00 0.00 39 934.1
20260509004517 17 298 6.4 16.1 0.00 0.00 0.00 39 933.9
20260509003016 17 302 4.8 16.1 0.00 0.00 0.00 40 933.6
20260509001514 18 295 12.9 27.4 0.00 0.00 0.00 40 933.8
20260509000014 18 302 12.9 30.6 0.00 0.00 0.00 41 934.1
20260508234513 18 302 16.1 33.8 0.00 0.00 0.00 41 934.4
20260508233012 20 273 16.1 32.2 0.00 0.00 0.00 33 933.3
20260508231511 20 292 17.7 35.4 0.00 0.00 0.00 30 933.1
20260508230009 21 277 17.7 32.2 0.00 0.00 0.00 29 933.0
20260508224511 20 267 16.1 30.6 0.00 0.00 0.00 31 933.3
20260508223006 21 262 17.7 29.0 0.00 0.00 0.00 30 933.6
20260508221508 21 276 12.9 25.7 0.00 0.00 0.00 30 933.7
20260508220001 20 300 14.5 32.2 0.00 0.00 0.00 31 933.9